{"data":{"norad_id":63189,"epoch":"2026-05-25T04:36:00.059904Z","epoch_age_seconds":52327,"freshness":"FRESH","line1":"1 63189U 25048G   26145.19166736  .00168413  00000+0  12839-2 0  9990","line2":"2 63189  43.0004 218.7029 0001032 241.6698 118.4065 15.70944603 70552","mean_motion":15.70944603,"eccentricity":0.0001032,"inclination_deg":43.0004,"raan_deg":218.7029,"arg_perigee_deg":241.6698,"mean_anomaly_deg":118.4065,"bstar":0.0012839,"rev_number":7055,"period_min":91.664594489841,"perigee_km":355.50112003129,"apogee_km":356.89108638379,"semimajor_km":6734.3331032075,"source":"CELESTRAK","updated_at":"2026-05-25T13:38:19.919963Z"}}